User: anonymous   Login
Location: Unspecified
(0.0000°N, 0.0000°E)
Time: 07:15:41
(UTC+00:00)
Language:

Courier 1B Rocket - Orbit

View from above orbital plane
View from above orbital plane
View from above satellite
View from above satellite

Ground track
Ground track

The orbit data is extracted from the following two-line orbital elements,

1    59U 60013B   17145.52548076 +.00000129 +00000-0 +49880-4 0  9994
2    59 028.2482 205.7743 0189158 254.9120 103.0424 13.52950158794952
Epoch (UTC): 25 May 2017 12:36:41
Eccentricity: 0.0189158
inclination: 28.2482°
perigee height: 921 km
apogee height: 1202 km
right ascension of ascending node: 205.7743°
argument of perigee: 254.9120°
revolutions per day: 13.52950158
mean anomaly at epoch: 103.0424°
orbit number at epoch: 79495

The dashed part of the orbit path shows where the satellite is in the earth's shadow,  

DLR